Location: Capelle
(50.3413°N, 1.9974°E)
Time: 20:32:33
(UTC+00:00)

BREEZE-M DEB (TANK) - Pass Details

Date: 12 January 2026
Orbit: 304 x 12632 km, 49.7° (Epoch: 15 February)

Event Time Altitude Azimuth Distance (km) Brightness Sun altitude
Rises 18:01:51 0° 214° (SW) 2,050 6.5 -16.6°
Reaches altitude 10° 18:03:27 10° 198° (SSW) 1,374 5.3 -16.9°
Maximum altitude 18:05:47 27° 136° (SE) 1,030 3.9 -17.3°
Enters shadow 18:06:14 26° 123° (ESE) 1,115 4.0 -17.3°
